Tracking 33744 objects as of 12-Apr-2026
HD Live streaming from Space Station
objects crossing your sky now

STARLINK-36252

Track STARLINK-36252 now!
10-day predictions
STARLINK-36252 is classified as:


NORAD ID: 68533
Int'l Code: 2026-068AB
Perigee: 334.4 km
Apogee: 335.7 km
Inclination: 53.2 °
Period: 91.1 minutes
Semi major axis: 6706 km
RCS: Unknown
Launch date: March 30, 2026
Source: United States (US)
Launch site: AIR FORCE EASTERN TEST RANGE (AFETR)
Your satellite tracking list
Your tracking list is empty




NASA's NSSDC Master Catalog

Two Line Element Set (TLE):
1 68533U 26068AB  26102.50001156 -.00049383  00000-0 -24781-3 0  9990
2 68533  53.1595 339.6713 0000912  98.7629  59.5584 15.80896792  3194
Source of the keplerian elements: AFSPC